Weather Roundup
Issued by NWS Corpus Christi, TX

Home | Current Version | Previous Version | Text Only | Print | Product List | Glossary On
Versions: 1 2 3 4 5 6 7 8 9 10 11 12 13 14 15 16 17 18 19 20 21 22 23 24 25 26 27 28 29 30 31 32 33 34 35 36 37 38 39 40 41 42 43 44 45 46 47 48 49 50
000
ASUS44 KCRP 301810
HRRCRP

SOUTH TEXAS REGIONAL WEATHER ROUNDUP
NATIONAL WEATHER SERVICE CORPUS CHRISTI TX
100 PM CDT SAT AUG 30 2014


TXZ229>244-301900-
...CORPUS CHRISTI AREA OBSERVATIONS...

CITY           SKY/WX    TMP DP  RH WIND       PRES   REMARKS
CORPUS CHRISTI CLOUDY    81  76  84 SE5       29.92S
NAS CORPUS CHR CLOUDY    83  76  79 SE5       29.92S HX  91
ROCKPORT       CLOUDY    84  71  65 SE7       29.93S
KINGSVILLE NAS CLOUDY    82  77  84 SE6       29.92S HX  90
ALICE          PTSUNNY   88  73  61 VRB5      29.91S HX  95
FALFURRIAS     PTSUNNY   69  64  83 E3        29.91S
$$

...VICTORIA AREA OBSERVATIONS...

CITY           SKY/WX    TMP DP  RH WIND       PRES   REMARKS
VICTORIA       PTSUNNY   89  74  60 S3        29.93F HX  98
BEEVILLE       PTSUNNY   89  72  58 S5        29.92F HX  95
PLEASANTON     PTSUNNY   92  67  43 E8        29.92F HX  96
SAN ANTONIO    MOSUNNY   92  69  47 VRB3      29.94F HX  97
$$

...LAREDO AREA OBSERVATIONS...

CITY           SKY/WX    TMP DP  RH WIND       PRES   REMARKS
LAREDO         SUNNY     95  69  42 VRB6      29.91F HX 100
COTULLA        MOSUNNY   91  68  46 E5        29.90F HX  95
DEL RIO        SUNNY     93  69  45 SE8       29.91F HX  98
MCALLEN        PTSUNNY   88  75  66 SE10      29.90S HX  97
HEBBRONVILLE   NOT AVBL
$$

...OTHER TEXAS OBSERVATIONS...

CITY           SKY/WX    TMP DP  RH WIND       PRES   REMARKS
BROWNSVILLE    CLOUDY    85  76  74 SE10      29.91S HX  94
HOUSTON        PTSUNNY   88  72  58 W5        29.94F HX  94
COL. STATION   PTSUNNY   87  71  58 N6        29.96S HX  93
AUSTIN         PTSUNNY   90  70  51 N6        29.94F HX  95
WACO           MOSUNNY   88  70  55 NE7       29.96F HX  93
FORT WORTH     PTSUNNY   88  73  61 E8        29.95F HX  95
WICHITA FALLS  SUNNY     89  71  55 CALM      29.95F HX  95
LUBBOCK        MOSUNNY   87  58  37 VRB6      30.07F
EL PASO        MOSUNNY   88  48  25 S7        30.07F
$$

...MARINE OBSERVATIONS...

STATION/POSITION TIME  SKY/WX   TEMP    WIND        PRES    VSBY  WAVE   SWELL
                                AIR SEA DIR/SP/G                  HT/PER HT/PER
                 (UTC)          (F)     (DEG/KT/KT) (MB)    (MI)  (FT/S) (FT/S)
PORT ARANSAS     1800            80 84  150/  3/  4 1013.9S
BUOY 90 E PORT A 1800            78 85  150/  6/ 10 1015.5R         4/ 7   3/ 7
BUOY 45 SE BAFFI 1800            80 85   60/ 10/ 12 1012.9F         4/ 7   3/ 7
BUOY 200 E PT IS 1800            83 86  160/ 16/ 17 1014.3S         6/ 7
BUOY 15 E GALVES 1800            82 85  190/ 10/ 10 1014.3S         4/ 6   3/ 6
$$



USA.gov is the U.S. government's official web portal to all federal, state and local government web resources and services.